カタログに戻る

STARLINK-4359

運用中通信SSO
NORAD 53226·PAYLOAD·🇺🇸 United States

打ち上げ Jul 22, 2022 から Vandenberg Space Force Base

Loading…

次のパス (今後24時間)

TLE

最新Source: CelesTrak SupGP

元期: Sep 15, 2026, 02:10 UTC

1 53226C 22084AP  26258.09076389  .00111020  00000+0  34462-2 0  2582
2 53226  97.2838 312.9738 0001962  77.5556 324.1096 15.33383229    18

AllMySatでSTARLINK-4359をリアルタイム追跡

Download on the App Store